{"data":{"norad_id":89304,"epoch":"2026-09-18T15:02:03.000768Z","epoch_age_seconds":176218,"freshness":"STALE","line1":"1 89304U          26261.62642362  .00031977  00000+0  14431-1 0  9992","line2":"2 89304  84.0664  25.2438 2817271 334.7256  21.4636  9.33511114464066","mean_motion":9.33511114,"eccentricity":0.2817271,"inclination_deg":84.0664,"raan_deg":25.2438,"arg_perigee_deg":334.7256,"mean_anomaly_deg":21.4636,"bstar":0.014431,"rev_number":46406,"period_min":154.25633164984,"perigee_km":465.36387573441,"apogee_km":5833.7960010954,"semimajor_km":9527.7169384149,"source":"CELESTRAK","updated_at":"2026-09-20T09:00:32.484656Z"}}